Wind_Speed
41 42 44 45 47 48 48 49 51 52 52 53 54 54 55 56 58 60 61 62 63 65 66 67 68 69 70 71 72 72 73 74 74 72 72 72 72 72 73 73 73 73 73
42 43 44 44 45 46 47 49 50 51 52 53 54 56 57 58 59 60 61 62 64 65 66 67 68 68 69 70 71 71 71 73 74 73 71 72 72 72 72 73 73 73 74
41 42 43 43 44 44 45 47 48 49 51 52 54 55 57 58 59 61 62 63 64 65 66 66 67 68 69 70 70 71 71 72 73 74 74 74 73 73 73 73 73 72 73
39 40 41 42 42 44 45 46 48 49 51 52 53 55 56 58 59 61 62 63 63 63 64 65 65 67 68 69 69 70 71 72 72 73 74 74 74 74 73 72 72 71 71
39 40 41 42 44 45 46 47 48 50 51 53 54 55 56 58 60 61 62 63 63 63 63 64 65 66 66 68 69 70 71 71 71 72 72 72 72 72 72 72 72 71 71
39 40 41 42 43 45 47 48 49 50 52 53 54 56 57 59 60 61 61 62 62 62 63 64 64 65 65 67 68 69 69 70 70 71 71 71 71 71 71 72 71 71 71
40 41 42 43 44 46 48 49 50 51 52 53 55 56 58 59 59 60 60 61 61 62 62 63 63 63 64 65 65 66 67 68 69 70 70 70 70 70 71 71 72 72 72
40 42 43 44 46 47 48 49 51 52 53 54 56 57 58 59 59 59 60 61 62 62 62 62 62 62 62 63 64 65 66 67 68 69 69 69 69 69 69 70 71 71 70
40 42 43 45 46 47 49 50 52 53 54 55 56 57 58 58 58 59 60 61 60 60 60 60 60 61 62 63 64 65 65 65 65 66 66 66 66 66 67 67 67 67 66
41 43 44 45 47 48 49 51 52 53 54 55 56 57 57 57 57 58 58 58 58 58 58 58 59 60 61 62 63 63 63 62 61 61 61 62 63 63 63 63 63 63 62
42 44 45 46 47 48 49 50 52 53 54 55 55 55 55 56 56 56 56 57 56 56 56 57 57 58 58 59 59 59 59 58 57 57 57 58 58 59 59 58 58 58 58
43 44 46 47 47 48 49 50 51 53 53 54 54 54 54 54 54 55 55 55 55 55 55 55 55 55 56 56 56 56 55 54 53 53 53 53 54 53 54 53 53 53 53
45 46 47 47 48 48 50 51 52 52 53 53 53 53 53 53 53 54 54 54 54 54 54 54 55 55 54 54 54 53 52 51 50 50 50 50 49 48 48 48 48 48 48
46 47 47 47 47 49 50 51 52 52 52 52 52 51 51 51 52 53 53 52 53 54 54 54 54 53 54 53 51 50 49 48 48 48 47 46 45 45 44 44 44 44 44
46 46 47 47 48 49 50 51 52 52 52 51 50 50 51 51 51 52 52 52 52 53 53 52 52 52 51 50 49 47 47 47 46 46 45 45 44 43 42 41 41 40 40
46 46 46 47 49 50 50 51 51 51 51 51 51 51 50 50 50 50 50 51 51 52 51 51 50 50 49 48 47 47 46 46 45 44 43 43 41 40 39 38 39 38 38
46 46 46 47 49 49 50 50 50 50 50 50 50 50 50 50 50 50 50 50 50 51 50 49 48 47 47 47 46 45 45 44 43 42 41 40 38 37 36 36 36 37 36
46 46 46 48 48 49 50 50 50 50 49 49 49 50 49 50 50 50 50 51 50 50 49 47 46 46 46 45 44 43 42 41 40 39 38 37 36 36 35 35 34 35 35
46 46 47 48 49 49 50 50 50 50 50 49 48 49 49 49 50 51 51 51 50 49 47 46 45 45 44 43 41 40 38 37 37 36 36 35 35 34 34 34 34 34 33
47 47 47 48 49 49 50 50 51 50 50 49 48 48 48 49 50 50 50 50 49 48 46 45 44 44 42 40 38 37 36 36 36 35 35 34 34 34 33 33 32 31 31
46 46 47 48 49 50 50 51 51 50 49 48 47 48 48 49 50 50 49 49 48 46 45 44 43 41 40 38 37 36 36 36 35 35 34 33 32 32 31 30 30 29 29
46 46 47 48 49 50 51 51 50 49 48 47 47 48 49 49 49 49 48 47 46 45 44 43 41 39 38 37 36 36 36 35 35 34 33 32 31 30 29 29 29 28 27
46 47 48 49 49 50 50 50 50 49 48 47 47 48 48 48 48 47 46 45 44 43 42 41 39 38 36 35 35 35 35 35 33 32 31 30 29 29 29 28 28 27 27
46 47 48 49 50 50 50 50 49 49 48 48 47 47 47 47 46 46 45 43 43 42 41 39 38 36 35 35 35 35 34 33 31 30 29 28 28 28 28 27 27 26 26
47 48 48 49 50 50 50 49 49 48 48 47 47 47 47 46 45 44 43 42 41 40 39 39 37 36 35 34 34 33 32 31 30 29 28 27 27 26 26 26 25 24 24
48 49 49 49 50 50 49 49 48 48 47 46 46 45 45 44 43 42 41 41 40 39 38 38 36 34 33 32 32 31 30 29 29 28 28 27 27 27 26 25 24 23 22
Wind_Direction
278 279 279 281 281 282 283 283 283 283 284 284 285 284 285 285 285 285 285 284 283 283 281 280 280 280 281 281 281 281 281 280 280 279 279 278 277 277 277 277 277 277 277
280 280 283 283 283 284 283 283 284 283 283 284 285 284 284 284 285 285 285 285 286 285 284 283 283 283 283 282 282 281 281 281 281 280 279 279 279 278 278 277 278 278 278
283 284 284 285 286 285 286 286 286 286 286 286 286 286 286 285 286 287 288 288 288 288 287 286 285 285 284 283 283 282 282 281 281 281 281 281 281 281 280 279 279 278 278
286 287 287 287 287 287 288 288 288 288 288 289 289 289 289 289 289 290 290 290 290 289 289 288 287 287 286 285 284 284 283 283 282 282 282 281 281 281 280 279 278 278 278
288 289 289 289 289 290 290 291 291 291 291 291 291 291 292 292 292 292 292 292 291 290 290 290 290 289 288 287 287 286 285 285 284 283 283 282 281 281 280 279 279 278 278
289 289 289 290 290 291 292 293 293 293 293 293 293 293 294 295 294 294 293 293 293 293 292 292 291 291 290 289 289 288 287 286 286 285 284 283 282 281 280 279 279 278 278
291 291 291 291 292 293 293 295 296 297 297 297 297 297 297 297 296 295 294 295 295 295 294 294 293 293 292 292 291 290 289 288 287 286 285 284 283 282 281 280 280 279 278
294 293 294 294 295 296 296 297 298 299 299 300 300 299 299 299 298 297 297 297 297 296 296 295 294 294 293 293 292 291 290 289 288 288 286 285 284 283 283 282 280 280 279
298 297 298 298 298 299 299 300 300 300 301 301 301 301 301 300 300 300 299 299 298 297 296 296 295 295 295 294 293 293 292 291 290 288 286 285 285 284 283 282 281 280 279
298 299 300 300 300 300 301 301 302 303 302 302 302 302 302 301 301 301 301 301 299 298 297 297 297 297 297 296 296 295 295 293 292 289 288 287 285 285 284 283 282 281 279
300 300 300 301 302 302 303 303 304 305 305 305 305 304 303 303 303 303 303 302 301 301 300 299 299 299 299 299 299 299 297 296 294 292 290 289 287 286 285 284 283 282 280
301 301 302 303 303 304 304 305 306 307 308 307 306 305 304 304 304 304 303 303 303 303 303 302 302 302 302 302 302 301 300 298 297 296 294 292 290 288 287 285 284 282 281
301 302 303 303 304 304 305 306 307 308 308 307 306 305 305 305 304 304 304 304 304 305 305 304 304 304 304 304 303 302 301 300 299 298 297 295 292 289 288 286 285 283 282
301 302 302 303 304 305 307 308 308 309 309 308 307 306 306 306 306 306 306 305 305 305 305 305 304 304 304 304 304 303 302 301 301 300 299 297 294 291 289 287 286 285 283
302 302 303 304 305 306 307 308 308 309 309 308 307 307 307 307 307 308 308 307 308 307 307 306 305 305 305 304 304 303 303 303 302 301 300 298 296 294 291 289 287 286 284
301 302 302 304 305 306 307 308 309 309 309 308 308 308 308 308 309 310 310 310 310 310 309 308 307 306 306 305 304 303 303 302 302 301 301 299 297 295 292 290 288 287 285
301 302 303 305 306 307 308 308 308 308 308 308 307 308 308 309 310 311 311 311 311 311 310 310 308 307 307 306 305 304 303 302 301 301 301 300 298 296 294 292 290 289 288
302 303 304 305 306 307 307 308 308 308 308 307 307 307 308 309 311 311 312 312 312 312 311 310 309 308 308 308 307 306 305 304 303 302 301 300 299 298 297 295 293 292 290
302 303 304 305 306 307 307 307 308 308 308 308 307 308 308 309 311 312 312 312 313 312 311 310 309 309 309 309 308 308 307 306 305 304 303 302 302 301 299 298 297 295 292
302 302 304 305 306 306 306 307 307 308 308 308 307 307 308 309 310 311 311 312 312 312 311 310 309 309 309 309 309 308 308 307 306 305 304 303 302 302 301 300 298 297 295
301 302 303 304 305 306 307 307 307 308 308 308 308 308 309 310 311 312 312 311 311 311 311 310 310 310 308 308 308 308 308 307 307 306 304 303 302 302 301 300 300 298 297
301 302 303 304 305 306 307 308 308 308 308 308 308 309 310 311 312 312 312 311 311 311 311 311 311 310 308 306 307 307 307 307 307 306 304 303 302 302 301 301 300 299 299
300 301 302 304 305 306 307 308 308 308 308 308 308 309 310 311 312 312 312 311 311 311 311 311 311 310 308 307 307 307 306 306 306 305 304 303 302 301 301 300 299 298 299
300 301 302 304 305 305 306 307 307 307 307 307 308 309 310 311 311 312 312 312 311 311 311 311 310 309 308 308 308 308 307 306 305 305 305 303 302 301 300 299 299 298 298
299 300 302 303 304 304 305 306 307 307 307 307 307 308 309 310 311 312 312 312 312 311 311 311 310 309 307 308 308 309 308 307 306 305 304 304 303 303 302 302 301 300 299
299 300 301 302 303 304 304 305 306 306 306 307 307 308 309 310 311 312 312 312 312 312 312 311 311 309 308 308 308 309 308 308 308 306 304 304 303 302 302 301 300 299 299
Height
5675 5673 5671 5669 5666 5664 5661 5658 5655 5652 5649 5646 5643 5640 5636 5633 5629 5625 5621 5617 5613 5608 5604 5600 5597 5593 5590 5586 5582 5578 5575 5571 5569 5571 5567 5565 5562 5559 5557 5555 5553 5551 5549
5665 5662 5660 5657 5654 5651 5648 5645 5642 5639 5636 5633 5629 5626 5622 5618 5614 5610 5605 5600 5596 5591 5586 5582 5578 5574 5570 5566 5562 5558 5554 5551 5548 5548 5547 5544 5541 5538 5535 5533 5531 5528 5526
5654 5652 5649 5646 5643 5640 5637 5634 5630 5627 5623 5620 5616 5612 5607 5603 5598 5594 5589 5584 5578 5573 5568 5563 5559 5555 5551 5546 5542 5538 5534 5530 5526 5524 5524 5522 5520 5516 5513 5511 5508 5505 5503
5644 5641 5638 5635 5632 5629 5626 5622 5618 5614 5610 5606 5602 5597 5592 5587 5582 5577 5572 5567 5561 5556 5550 5545 5540 5535 5530 5525 5521 5517 5513 5509 5505 5502 5500 5499 5497 5494 5490 5488 5486 5483 5481
5634 5631 5628 5624 5621 5618 5614 5610 5606 5601 5597 5592 5588 5583 5577 5572 5566 5561 5555 5549 5544 5538 5533 5527 5522 5516 5511 5505 5501 5496 5492 5487 5484 5480 5478 5475 5473 5471 5468 5465 5463 5462 5459
5623 5620 5617 5613 5610 5606 5602 5598 5593 5588 5583 5578 5573 5568 5562 5556 5550 5544 5537 5532 5526 5521 5515 5509 5504 5498 5492 5487 5481 5476 5471 5466 5462 5458 5455 5452 5450 5448 5445 5442 5440 5439 5438
5613 5609 5606 5602 5598 5594 5590 5585 5580 5575 5570 5564 5558 5552 5547 5541 5534 5528 5521 5515 5510 5503 5497 5491 5485 5480 5473 5468 5462 5457 5451 5446 5441 5436 5432 5429 5428 5426 5423 5421 5417 5414 5413
5602 5598 5594 5590 5586 5582 5577 5572 5567 5561 5555 5549 5543 5537 5531 5525 5518 5512 5505 5499 5493 5486 5480 5473 5467 5462 5455 5449 5443 5438 5432 5427 5422 5416 5412 5409 5405 5402 5399 5396 5394 5392 5391
5592 5587 5583 5579 5574 5569 5564 5559 5553 5547 5541 5535 5528 5522 5515 5509 5502 5496 5489 5483 5476 5469 5463 5456 5450 5444 5438 5431 5424 5419 5414 5408 5402 5396 5391 5387 5383 5380 5376 5373 5371 5369 5369
5581 5576 5572 5567 5562 5556 5551 5545 5539 5533 5526 5520 5514 5507 5500 5494 5487 5480 5473 5466 5460 5454 5447 5440 5433 5426 5419 5412 5405 5399 5393 5388 5383 5377 5373 5368 5364 5360 5356 5352 5350 5348 5346
5570 5565 5560 5554 5549 5543 5537 5531 5525 5519 5513 5506 5500 5493 5486 5479 5472 5465 5458 5450 5444 5437 5431 5424 5418 5410 5403 5395 5388 5381 5375 5369 5363 5359 5354 5350 5345 5341 5337 5334 5330 5327 5326
5559 5553 5548 5542 5536 5530 5524 5518 5512 5505 5499 5492 5485 5479 5472 5465 5458 5451 5443 5436 5428 5422 5416 5409 5402 5395 5387 5380 5373 5366 5359 5353 5347 5342 5337 5332 5328 5324 5320 5317 5313 5310 5308
5547 5541 5536 5530 5524 5518 5512 5505 5499 5492 5485 5478 5472 5465 5459 5451 5444 5437 5430 5422 5415 5407 5401 5394 5387 5380 5372 5365 5358 5351 5344 5338 5333 5328 5322 5317 5312 5308 5304 5301 5298 5295 5293
5534 5529 5523 5517 5512 5505 5499 5492 5485 5479 5472 5465 5458 5452 5445 5438 5431 5424 5416 5409 5402 5394 5388 5381 5373 5365 5358 5351 5345 5338 5331 5325 5319 5314 5308 5303 5298 5294 5290 5287 5285 5282 5280
5522 5516 5511 5505 5499 5493 5486 5479 5472 5465 5458 5451 5445 5438 5432 5425 5418 5410 5402 5395 5388 5380 5373 5366 5359 5352 5345 5338 5332 5325 5319 5313 5307 5301 5296 5291 5286 5281 5278 5275 5272 5269 5267
5509 5504 5498 5492 5487 5480 5474 5467 5459 5453 5445 5438 5431 5425 5418 5411 5404 5397 5389 5382 5374 5366 5359 5352 5345 5338 5331 5325 5319 5313 5307 5301 5295 5289 5284 5279 5274 5270 5266 5263 5260 5257 5255
5497 5491 5486 5480 5474 5467 5461 5455 5448 5441 5433 5426 5419 5412 5406 5398 5391 5384 5377 5370 5362 5354 5346 5339 5332 5325 5319 5313 5307 5301 5295 5289 5283 5278 5273 5268 5264 5260 5256 5253 5249 5247 5244
5485 5479 5473 5467 5461 5455 5448 5442 5435 5429 5423 5415 5408 5401 5394 5387 5379 5372 5365 5358 5350 5342 5334 5327 5320 5314 5307 5301 5295 5289 5284 5278 5273 5268 5263 5259 5254 5250 5246 5243 5240 5237 5234
5472 5467 5461 5455 5449 5442 5436 5430 5423 5417 5410 5403 5397 5390 5382 5375 5367 5360 5352 5345 5338 5330 5323 5316 5309 5302 5296 5290 5284 5279 5273 5268 5263 5259 5254 5250 5245 5241 5237 5234 5231 5228 5225
5459 5454 5448 5442 5436 5430 5424 5417 5411 5404 5398 5391 5385 5378 5371 5364 5357 5349 5341 5333 5326 5319 5312 5305 5298 5292 5286 5280 5275 5269 5264 5260 5255 5250 5245 5241 5237 5233 5229 5226 5223 5220 5217
5447 5441 5435 5429 5423 5417 5411 5405 5398 5392 5385 5379 5372 5365 5358 5352 5345 5337 5330 5322 5314 5307 5301 5294 5287 5281 5276 5270 5266 5261 5256 5251 5246 5241 5237 5233 5229 5225 5221 5218 5215 5212 5209
5434 5428 5423 5417 5411 5405 5398 5392 5385 5379 5373 5366 5360 5353 5346 5339 5332 5325 5318 5310 5303 5296 5290 5283 5277 5271 5266 5261 5256 5252 5247 5242 5237 5233 5229 5225 5221 5217 5214 5211 5208 5205 5202
5421 5415 5410 5404 5398 5392 5386 5379 5373 5367 5360 5354 5348 5341 5334 5327 5320 5313 5306 5299 5292 5286 5279 5273 5268 5262 5257 5252 5247 5243 5238 5233 5229 5224 5220 5217 5214 5210 5207 5204 5201 5198 5195
5408 5402 5397 5391 5386 5379 5373 5367 5360 5354 5348 5342 5336 5329 5323 5316 5309 5302 5295 5289 5282 5276 5270 5264 5258 5253 5248 5243 5239 5234 5229 5225 5221 5217 5213 5210 5207 5203 5200 5197 5194 5191 5188
5394 5389 5384 5378 5373 5367 5360 5354 5348 5342 5336 5330 5324 5317 5311 5305 5298 5292 5285 5279 5273 5267 5260 5255 5249 5244 5239 5235 5230 5226 5221 5217 5213 5209 5206 5203 5200 5196 5193 5190 5187 5185 5182
5381 5376 5371 5365 5360 5354 5348 5342 5336 5330 5324 5318 5312 5306 5300 5294 5288 5282 5275 5269 5263 5257 5252 5246 5241 5236 5231 5227 5222 5218 5214 5210 5206 5202 5199 5196 5193 5189 5186 5183 5181 5178 5176